| time (UTC) | temp F | wind direction | speed MPH | gust MPH | rain 1hr in | rain 24hr in | rain mn in | humidity % | barometer mb |
| 20260906023027 | 79 | 119 | 3.0 | 7.0 | 0.00 | 0.00 | 0.00 | 77 | 1011.4 |
| 20260906021535 | 80 | 119 | 2.0 | 7.0 | 0.00 | 0.00 | 0.00 | 76 | 1011.1 |
| 20260906020019 | 80 | 98 | 3.0 | 8.0 | 0.00 | 0.00 | 0.00 | 76 | 1010.9 |
| 20260906014527 | 80 | 84 | 2.0 | 7.0 | 0.00 | 0.00 | 0.00 | 76 | 1010.8 |
| 20260906013031 | 81 | 100 | 3.0 | 6.0 | 0.00 | 0.00 | 0.00 | 75 | 1010.7 |
| 20260906011608 | 81 | 86 | 4.0 | 9.0 | 0.00 | 0.00 | 0.00 | 75 | 1010.5 |
| 20260906010037 | 82 | 108 | 4.0 | 10.0 | 0.00 | 0.00 | 0.00 | 74 | 1010.5 |
| 20260906004527 | 82 | 97 | 2.0 | 8.0 | 0.00 | 0.00 | 0.00 | 74 | 1010.8 |
| 20260906003015 | 83 | 116 | 3.0 | 8.0 | 0.00 | 0.00 | 0.00 | 74 | 1010.8 |
| 20260906001527 | 83 | 119 | 2.0 | 8.0 | 0.00 | 0.00 | 0.00 | 73 | 1011.0 |
| 20260906000014 | 84 | 109 | 3.0 | 8.0 | 0.00 | 0.00 | 0.00 | 72 | 1010.9 |
| 20260905234544 | 84 | 82 | 5.0 | 10.0 | 0.00 | 0.00 | 0.00 | 72 | 1011.0 |
| 20260905233035 | 84 | 97 | 4.0 | 10.0 | 0.00 | 0.00 | 0.00 | 71 | 1010.7 |
| 20260905231527 | 84 | 71 | 5.0 | 12.0 | 0.00 | 0.00 | 0.00 | 70 | 1010.6 |
| 20260905230008 | 85 | 77 | 5.0 | 12.0 | 0.00 | 0.00 | 0.00 | 69 | 1010.6 |
| 20260905224522 | 85 | 72 | 4.0 | 12.0 | 0.00 | 0.00 | 0.00 | 69 | 1010.6 |
| 20260905223012 | 87 | 70 | 4.0 | 11.0 | 0.00 | 0.00 | 0.00 | 69 | 1010.5 |
| 20260905221534 | 88 | 63 | 6.0 | 12.0 | 0.00 | 0.00 | 0.00 | 69 | 1010.6 |
| 20260905220005 | 89 | 311 | 0.0 | 0.0 | 0.00 | 0.00 | 0.00 | 70 | 1010.5 |
| 20260905214510 | 89 | 311 | 0.0 | 6.0 | 0.00 | 0.00 | 0.00 | 70 | 1010.2 |
| 20260905213110 | 89 | 294 | 1.0 | 3.0 | 0.00 | 0.00 | 0.00 | 71 | 1010.4 |
| 20260905211542 | 90 | 254 | 1.0 | 6.0 | 0.00 | 0.00 | 0.00 | 71 | 1010.7 |
| 20260905210007 | 90 | 254 | 3.0 | 10.0 | 0.00 | 0.00 | 0.00 | 72 | 1010.7 |
| 20260905204525 | 90 | 267 | 6.0 | 10.0 | 0.00 | 0.00 | 0.00 | 72 | 1010.7 |
| 20260905203026 | 90 | 215 | 5.0 | 12.0 | 0.00 | 0.00 | 0.00 | 73 | 1010.9 |
| 20260905201535 | 90 | 206 | 6.0 | 11.0 | 0.00 | 0.00 | 0.00 | 73 | 1011.0 |
| 20260905200032 | 91 | 221 | 1.0 | 7.0 | 0.00 | 0.00 | 0.00 | 74 | 1011.1 |
| 20260905194600 | 91 | 308 | 0.0 | 3.0 | 0.00 | 0.00 | 0.00 | 75 | 1011.1 |
| 20260905193025 | 92 | 43 | 2.0 | 8.0 | 0.00 | 0.00 | 0.00 | 76 | 1011.3 |
| 20260905191542 | 92 | 199 | 3.0 | 10.0 | 0.00 | 0.00 | 0.00 | 78 | 1011.4 |
| 20260905190002 | 91 | 200 | 2.0 | 6.0 | 0.00 | 0.00 | 0.00 | 79 | 1011.6 |
| 20260905184546 | 90 | 263 | 3.0 | 9.0 | 0.00 | 0.00 | 0.00 | 80 | 1011.7 |
| 20260905183020 | 90 | 74 | 5.0 | 10.0 | 0.00 | 0.00 | 0.00 | 81 | 1012.1 |
| 20260905181558 | 89 | 173 | 1.0 | 4.0 | 0.00 | 0.00 | 0.00 | 82 | 1012.5 |
| 20260905180026 | 89 | 119 | 2.0 | 6.0 | 0.00 | 0.00 | 0.00 | 83 | 1012.8 |
| 20260905174600 | 88 | 169 | 2.0 | 7.0 | 0.00 | 0.00 | 0.00 | 83 | 1013.0 |
| 20260905173034 | 88 | 156 | 0.0 | 5.0 | 0.00 | 0.00 | 0.00 | 84 | 1013.2 |
| 20260905171515 | 87 | 94 | 3.0 | 6.0 | 0.00 | 0.00 | 0.00 | 85 | 1013.4 |
| 20260905170008 | 87 | 61 | 2.0 | 5.0 | 0.00 | 0.00 | 0.00 | 85 | 1013.4 |
| 20260905164546 | 87 | 229 | 0.0 | 2.0 | 0.00 | 0.00 | 0.00 | 86 | 1013.5 |
| 20260905163022 | 87 | 183 | 2.0 | 7.0 | 0.00 | 0.00 | 0.00 | 86 | 1013.6 |
| 20260905161518 | 86 | 143 | 4.0 | 8.0 | 0.00 | 0.00 | 0.00 | 87 | 1013.5 |
| 20260905160014 | 86 | 180 | 3.0 | 7.0 | 0.00 | 0.00 | 0.00 | 88 | 1013.6 |
| 20260905154606 | 85 | 221 | 0.0 | 9.0 | 0.00 | 0.01 | 0.00 | 88 | 1013.6 |
| 20260905153033 | 85 | 232 | 4.0 | 8.0 | 0.00 | 0.01 | 0.00 | 88 | 1013.6 |
| 20260905151511 | 84 | 225 | 3.0 | 10.0 | 0.00 | 0.01 | 0.00 | 88 | 1013.5 |
| 20260905150044 | 84 | 261 | 1.0 | 4.0 | 0.00 | 0.01 | 0.00 | 88 | 1013.5 |
| 20260905144528 | 83 | 290 | 1.0 | 7.0 | 0.00 | 0.01 | 0.00 | 88 | 1013.6 |
| 20260905143043 | 81 | 262 | 0.0 | 3.0 | 0.00 | 0.01 | 0.00 | 87 | 1013.7 |
| 20260905141525 | 81 | 141 | 0.0 | 0.0 | 0.00 | 0.01 | 0.00 | 87 | 1013.7 |
| 20260905140008 | 80 | 140 | 0.0 | 0.0 | 0.00 | 0.01 | 0.00 | 87 | 1013.7 |
| 20260905134531 | 79 | 173 | 0.0 | 0.0 | 0.00 | 0.01 | 0.00 | 87 | 1013.6 |
| 20260905133007 | 77 | 173 | 0.0 | 0.0 | 0.00 | 0.01 | 0.00 | 86 | 1013.5 |
| 20260905131613 | 76 | 173 | 0.0 | 1.0 | 0.00 | 0.01 | 0.00 | 86 | 1013.4 |
| 20260905130028 | 75 | 174 | 1.0 | 3.0 | 0.00 | 0.01 | 0.00 | 86 | 1013.4 |
| 20260905124520 | 74 | 175 | 2.0 | 4.0 | 0.00 | 0.01 | 0.00 | 85 | 1013.1 |
| 20260905123030 | 74 | 197 | 1.0 | 3.0 | 0.00 | 0.01 | 0.00 | 85 | 1012.9 |
| 20260905121549 | 74 | 197 | 0.0 | 0.0 | 0.00 | 0.01 | 0.00 | 85 | 1012.8 |
| 20260905120022 | 74 | 197 | 0.0 | 0.0 | 0.00 | 0.01 | 0.00 | 85 | 1012.6 |
| 20260905050009 | 79 | 156 | 2.0 | 6.0 | 0.00 | 0.03 | 0.00 | 77 | 1012.5 |
| 20260905044552 | 79 | 171 | 1.0 | 4.0 | 0.00 | 0.03 | 0.03 | 77 | 1012.5 |
| 20260905043030 | 80 | 145 | 2.0 | 7.0 | 0.00 | 0.03 | 0.03 | 76 | 1012.6 |
| 20260905041550 | 80 | 136 | 3.0 | 7.0 | 0.00 | 0.03 | 0.03 | 76 | 1012.5 |
| 20260905040019 | 80 | 165 | 3.0 | 7.0 | 0.00 | 0.03 | 0.03 | 76 | 1012.6 |
| 20260905034532 | 80 | 190 | 2.0 | 8.0 | 0.00 | 0.03 | 0.03 | 75 | 1012.6 |
| 20260905033104 | 80 | 134 | 4.0 | 8.0 | 0.00 | 0.03 | 0.03 | 75 | 1012.5 |
| 20260905031520 | 79 | 140 | 3.0 | 9.0 | 0.00 | 0.03 | 0.03 | 74 | 1012.5 |
| 20260905030013 | 79 | 127 | 2.0 | 7.0 | 0.00 | 0.03 | 0.03 | 74 | 1012.5 |
| 20260905024603 | 80 | 111 | 3.0 | 7.0 | 0.00 | 0.03 | 0.03 | 73 | 1012.4 |